Time,TemperatureF,DewpointF,PressureIn,WindDirection,WindDirectionDegrees,WindSpeedMPH,WindSpeedGustMPH,Humidity,HourlyPrecipIn,Conditions,Clouds,dailyrainin,SolarRadiationWatts/m^2,SoftwareType,DateUTC
2013-03-31 00:00:00,40.9,29.7,29.91,SSW,213,0.0,0.0,64,0.00,,---,0.00,0.00,VWS V14.01,2013-03-31 04:00:00,
2013-03-31 00:05:00,40.2,29.8,29.91,SSW,213,0.0,0.0,66,0.00,,---,0.00,0.00,VWS V14.01,2013-03-31 04:05:00,
2013-03-31 00:10:00,39.8,28.6,29.91,SSW,213,0.0,0.0,64,0.00,,---,0.00,0.00,VWS V14.01,2013-03-31 04:10:00,
2013-03-31 00:15:00,39.7,28.5,29.91,SSW,213,0.0,1.0,64,0.00,,---,0.00,0.00,VWS V14.01,2013-03-31 04:15:00,
2013-03-31 00:20:00,39.7,28.1,29.91,SSW,213,0.0,1.0,63,0.00,,---,0.00,0.00,VWS V14.01,2013-03-31 04:20:00,
2013-03-31 00:25:00,39.7,29.7,29.91,SSW,213,0.0,1.0,67,0.00,,---,0.00,0.00,VWS V14.01,2013-03-31 04:25:00,
2013-03-31 00:30:00,39.6,29.9,29.90,SSW,213,0.0,0.0,68,0.00,,---,0.00,0.00,VWS V14.01,2013-03-31 04:30:00,
2013-03-31 00:35:00,39.4,30.1,29.90,SSW,213,0.0,0.0,69,0.00,,---,0.00,0.00,VWS V14.01,2013-03-31 04:35:00,
2013-03-31 00:40:00,39.3,30.0,29.90,SSW,213,0.0,0.0,69,0.00,,---,0.00,0.00,VWS V14.01,2013-03-31 04:40:00,
2013-03-31 00:46:00,39.1,30.5,29.90,SSW,213,0.0,0.0,71,0.00,,---,0.00,0.00,VWS V14.01,2013-03-31 04:46:00,
2013-03-31 00:51:00,38.9,30.7,29.90,SSW,213,0.0,0.0,72,0.00,,---,0.00,0.00,VWS V14.01,2013-03-31 04:51:00,
2013-03-31 00:56:00,38.6,30.7,29.90,SSW,213,0.0,0.0,73,0.00,,---,0.00,0.00,VWS V14.01,2013-03-31 04:56:00,
2013-03-31 01:00:00,38.5,31.0,29.89,SSW,213,0.0,0.0,74,0.00,,---,0.00,0.00,VWS V14.01,2013-03-31 05:00:00,
2013-03-31 01:01:00,38.5,31.0,29.89,SSW,213,0.0,0.0,74,0.00,,---,0.00,0.00,VWS V14.01,2013-03-31 05:01:00,
2013-03-31 01:06:00,38.3,31.1,29.89,SSW,213,0.0,0.0,75,0.00,,---,0.00,0.00,VWS V14.01,2013-03-31 05:06:00,
2013-03-31 01:11:00,38.2,31.0,29.89,SSW,213,0.0,0.0,75,0.00,,---,0.00,0.00,VWS V14.01,2013-03-31 05:11:00,
2013-03-31 01:16:00,38.0,31.1,29.89,SSW,213,0.0,0.0,76,0.00,,---,0.00,0.00,VWS V14.01,2013-03-31 05:16:00,
2013-03-31 01:21:00,37.9,31.0,29.88,SSW,213,0.0,0.0,76,0.00,,---,0.00,0.00,VWS V14.01,2013-03-31 05:21:00,
2013-03-31 01:26:00,37.9,31.0,29.88,SSW,213,0.0,0.0,76,0.00,,---,0.00,0.00,VWS V14.01,2013-03-31 05:26:00,
2013-03-31 01:30:00,37.8,30.9,29.88,SSW,213,0.0,0.0,76,0.00,,---,0.00,0.00,VWS V14.01,2013-03-31 05:30:00,
2013-03-31 01:31:00,37.8,30.9,29.88,SSW,213,0.0,0.0,76,0.00,,---,0.00,0.00,VWS V14.01,2013-03-31 05:31:00,
2013-03-31 01:36:00,37.7,30.8,29.88,SSW,213,0.0,0.0,76,0.00,,---,0.00,0.00,VWS V14.01,2013-03-31 05:36:00,
2013-03-31 01:41:00,37.6,30.7,29.87,SSW,213,0.0,0.0,76,0.00,,---,0.00,0.00,VWS V14.01,2013-03-31 05:41:00,
2013-03-31 01:46:00,37.6,31.1,29.87,SSW,213,0.0,0.0,77,0.00,,---,0.00,0.00,VWS V14.01,2013-03-31 05:46:00,
2013-03-31 01:52:00,37.5,31.3,29.87,SSW,213,0.0,0.0,78,0.00,,---,0.00,0.00,VWS V14.01,2013-03-31 05:52:00,
2013-03-31 01:57:00,37.4,31.2,29.87,SSW,213,0.0,0.0,78,0.00,,---,0.00,0.00,VWS V14.01,2013-03-31 05:57:00,
2013-03-31 02:00:00,37.3,31.1,29.87,SSW,213,0.0,0.0,78,0.00,,---,0.00,0.00,VWS V14.01,2013-03-31 06:00:00,
2013-03-31 02:02:00,37.3,31.1,29.86,SSW,213,0.0,0.0,78,0.00,,---,0.00,0.00,VWS V14.01,2013-03-31 06:02:00,
2013-03-31 02:07:00,37.2,31.3,29.86,SSW,213,0.0,0.0,79,0.00,,---,0.00,0.00,VWS V14.01,2013-03-31 06:07:00,
2013-03-31 02:12:00,37.0,31.1,29.86,SSW,213,0.0,0.0,79,0.00,,---,0.00,0.00,VWS V14.01,2013-03-31 06:12:00,
2013-03-31 02:17:00,36.9,31.0,29.86,SSW,213,0.0,0.0,79,0.00,,---,0.00,0.00,VWS V14.01,2013-03-31 06:17:00,
2013-03-31 02:22:00,36.7,30.8,29.85,SSW,213,0.0,0.0,79,0.00,,---,0.00,0.00,VWS V14.01,2013-03-31 06:22:00,
2013-03-31 02:27:00,36.6,30.7,29.85,SSW,213,0.0,0.0,79,0.00,,---,0.00,0.00,VWS V14.01,2013-03-31 06:27:00,
2013-03-31 02:30:00,36.5,30.6,29.85,SSW,213,0.0,0.0,79,0.00,,---,0.00,0.00,VWS V14.01,2013-03-31 06:30:00,
2013-03-31 02:32:00,36.5,30.6,29.85,SSW,213,0.0,0.0,79,0.00,,---,0.00,0.00,VWS V14.01,2013-03-31 06:32:00,
2013-03-31 02:37:00,36.4,30.5,29.85,SSW,213,0.0,0.0,79,0.00,,---,0.00,0.00,VWS V14.01,2013-03-31 06:37:00,
2013-03-31 02:42:00,36.5,30.3,29.85,SSW,213,0.0,0.0,78,0.00,,---,0.00,0.00,VWS V14.01,2013-03-31 06:42:00,
2013-03-31 02:47:00,36.6,30.4,29.84,SSW,213,0.0,0.0,78,0.00,,---,0.00,0.00,VWS V14.01,2013-03-31 06:47:00,
2013-03-31 02:52:00,36.6,30.4,29.84,SSW,213,0.0,0.0,78,0.00,,---,0.00,0.00,VWS V14.01,2013-03-31 06:52:00,
2013-03-31 02:57:00,36.8,30.6,29.84,SSW,213,0.0,0.0,78,0.00,,---,0.00,0.00,VWS V14.01,2013-03-31 06:57:00,
2013-03-31 03:00:00,36.8,30.6,29.83,SSW,213,0.0,0.0,78,0.00,,---,0.00,0.00,VWS V14.01,2013-03-31 07:00:00,
2013-03-31 03:02:00,36.8,30.6,29.83,SSW,213,0.0,0.0,78,0.00,,---,0.00,0.00,VWS V14.01,2013-03-31 07:02:00,
2013-03-31 03:07:00,36.9,30.7,29.83,SSW,213,0.0,0.0,78,0.00,,---,0.00,0.00,VWS V14.01,2013-03-31 07:07:00,
2013-03-31 03:12:00,37.0,31.1,29.83,SSW,213,0.0,0.0,79,0.00,,---,0.00,0.00,VWS V14.01,2013-03-31 07:12:00,
2013-03-31 03:17:00,37.0,31.1,29.83,SSW,213,0.0,0.0,79,0.00,,---,0.00,0.00,VWS V14.01,2013-03-31 07:17:00,
2013-03-31 03:22:00,37.1,31.2,29.83,SSW,213,0.0,1.0,79,0.00,,---,0.00,0.00,VWS V14.01,2013-03-31 07:22:00,
2013-03-31 03:27:00,37.1,31.2,29.82,SSW,213,0.0,1.0,79,0.00,,---,0.00,0.00,VWS V14.01,2013-03-31 07:27:00,
2013-03-31 03:30:00,37.1,31.2,29.82,SSW,213,0.0,1.0,79,0.00,,---,0.00,0.00,VWS V14.01,2013-03-31 07:30:00,
2013-03-31 03:32:00,37.2,31.6,29.82,SSW,213,0.0,0.0,80,0.00,,---,0.00,0.00,VWS V14.01,2013-03-31 07:32:00,
2013-03-31 03:37:00,37.3,31.4,29.82,SSW,213,0.0,0.0,79,0.00,,---,0.00,0.00,VWS V14.01,2013-03-31 07:37:00,
2013-03-31 03:42:00,37.4,31.8,29.82,SSW,213,0.0,0.0,80,0.00,,---,0.00,0.00,VWS V14.01,2013-03-31 07:42:00,
2013-03-31 03:47:00,37.4,31.8,29.81,SSW,213,0.0,1.0,80,0.00,,---,0.00,0.00,VWS V14.01,2013-03-31 07:47:00,
2013-03-31 03:52:00,37.5,32.2,29.81,SSW,213,0.0,1.0,81,0.00,,---,0.00,0.00,VWS V14.01,2013-03-31 07:52:00,
2013-03-31 03:58:00,37.5,32.2,29.81,SSW,213,0.0,1.0,81,0.00,,---,0.00,0.00,VWS V14.01,2013-03-31 07:58:00,
2013-03-31 04:00:00,37.6,32.3,29.81,SSW,213,0.0,1.0,81,0.00,,---,0.00,0.00,VWS V14.01,2013-03-31 08:00:00,
2013-03-31 04:03:00,37.6,32.3,29.81,SSW,213,0.0,2.0,81,0.00,,---,0.00,0.00,VWS V14.01,2013-03-31 08:03:00,
2013-03-31 04:08:00,37.6,32.3,29.81,SSW,213,0.0,2.0,81,0.00,,---,0.00,0.00,VWS V14.01,2013-03-31 08:08:00,
2013-03-31 04:13:00,37.7,32.4,29.80,SSW,213,0.0,2.0,81,0.00,,---,0.00,0.00,VWS V14.01,2013-03-31 08:13:00,
2013-03-31 04:18:00,37.8,32.5,29.80,SSW,213,0.0,2.0,81,0.00,,---,0.00,0.00,VWS V14.01,2013-03-31 08:18:00,
2013-03-31 04:23:00,37.8,32.5,29.80,SSW,213,0.0,2.0,81,0.00,,---,0.00,0.00,VWS V14.01,2013-03-31 08:23:00,
2013-03-31 04:28:00,37.9,32.6,29.80,SSW,213,0.0,2.0,81,0.00,,---,0.00,0.00,VWS V14.01,2013-03-31 08:28:00,
2013-03-31 04:30:00,37.9,32.6,29.80,SSW,213,0.0,2.0,81,0.00,,---,0.00,0.00,VWS V14.01,2013-03-31 08:30:00,
2013-03-31 04:33:00,37.9,32.6,29.80,SSW,213,0.0,0.0,81,0.00,,---,0.00,0.00,VWS V14.01,2013-03-31 08:33:00,
2013-03-31 04:38:00,38.0,32.4,29.80,SSW,213,0.0,0.0,80,0.00,,---,0.00,0.00,VWS V14.01,2013-03-31 08:38:00,
2013-03-31 04:43:00,38.1,32.5,29.80,SSW,213,0.0,0.0,80,0.00,,---,0.00,0.00,VWS V14.01,2013-03-31 08:43:00,
2013-03-31 04:48:00,38.2,32.6,29.80,SSW,213,0.0,0.0,80,0.00,,---,0.00,0.00,VWS V14.01,2013-03-31 08:48:00,
2013-03-31 04:53:00,38.3,32.7,29.80,SSW,213,0.0,2.0,80,0.00,,---,0.00,0.00,VWS V14.01,2013-03-31 08:53:00,
2013-03-31 04:58:00,38.4,32.8,29.79,SSW,213,0.0,2.0,80,0.00,,---,0.00,0.00,VWS V14.01,2013-03-31 08:58:00,
2013-03-31 05:00:00,38.5,32.9,29.79,SSW,213,0.0,2.0,80,0.00,,---,0.00,0.00,VWS V14.01,2013-03-31 09:00:00,
2013-03-31 05:03:00,38.5,32.6,29.79,SSW,213,0.0,1.0,79,0.00,,---,0.00,0.00,VWS V14.01,2013-03-31 09:03:00,
2013-03-31 05:08:00,38.6,32.7,29.79,SSW,213,0.0,1.0,79,0.00,,---,0.00,0.00,VWS V14.01,2013-03-31 09:08:00,
2013-03-31 05:13:00,38.7,32.4,29.79,SSW,213,0.0,1.0,78,0.00,,---,0.00,0.00,VWS V14.01,2013-03-31 09:13:00,
2013-03-31 05:18:00,38.8,31.9,29.79,SSW,213,0.0,1.0,76,0.00,,---,0.00,0.00,VWS V14.01,2013-03-31 09:18:00,
2013-03-31 05:23:00,39.0,31.8,29.78,SSW,213,0.0,2.0,75,0.00,,---,0.00,0.00,VWS V14.01,2013-03-31 09:23:00,
2013-03-31 05:28:00,39.2,32.3,29.78,SSW,213,0.0,2.0,76,0.00,,---,0.00,0.00,VWS V14.01,2013-03-31 09:28:00,
2013-03-31 05:30:00,39.3,32.7,29.78,SSW,213,0.0,2.0,77,0.00,,---,0.00,0.00,VWS V14.01,2013-03-31 09:30:00,
2013-03-31 05:33:00,39.3,32.4,29.78,SSW,213,0.0,0.0,76,0.00,,---,0.00,0.00,VWS V14.01,2013-03-31 09:33:00,
2013-03-31 05:38:00,39.5,32.6,29.78,SSW,213,0.0,0.0,76,0.00,,---,0.00,0.00,VWS V14.01,2013-03-31 09:38:00,
2013-03-31 05:43:00,39.6,33.0,29.78,SSW,213,0.0,0.0,77,0.00,,---,0.00,0.00,VWS V14.01,2013-03-31 09:43:00,
2013-03-31 05:48:00,39.7,33.4,29.78,SSW,213,0.0,0.0,78,0.00,,---,0.00,0.00,VWS V14.01,2013-03-31 09:48:00,
2013-03-31 05:53:00,39.8,33.5,29.77,SSW,213,0.0,0.0,78,0.00,,---,0.00,0.00,VWS V14.01,2013-03-31 09:53:00,
2013-03-31 05:58:00,39.8,33.5,29.77,SSW,213,0.0,0.0,78,0.00,,---,0.00,0.00,VWS V14.01,2013-03-31 09:58:00,
2013-03-31 06:00:00,39.8,33.8,29.77,SSW,213,0.0,0.0,79,0.00,,---,0.00,0.00,VWS V14.01,2013-03-31 10:00:00,
2013-03-31 06:03:00,39.9,33.9,29.77,SSW,213,0.0,0.0,79,0.00,,---,0.00,0.00,VWS V14.01,2013-03-31 10:03:00,
2013-03-31 06:08:00,39.9,34.2,29.77,SSW,213,0.0,0.0,80,0.00,,---,0.00,0.00,VWS V14.01,2013-03-31 10:08:00,
2013-03-31 06:13:00,39.9,34.5,29.77,SSW,213,0.0,0.0,81,0.00,,---,0.00,0.00,VWS V14.01,2013-03-31 10:13:00,
2013-03-31 06:18:00,39.9,34.9,29.77,SSW,213,0.0,0.0,82,0.00,,---,0.00,0.00,VWS V14.01,2013-03-31 10:18:00,
2013-03-31 06:23:00,39.8,34.8,29.77,SSW,213,2.0,2.0,82,0.00,,---,0.00,0.00,VWS V14.01,2013-03-31 10:23:00,
2013-03-31 06:28:00,39.7,35.0,29.77,SSW,213,0.0,2.0,83,0.00,,---,0.00,0.00,VWS V14.01,2013-03-31 10:28:00,
2013-03-31 06:30:00,39.7,35.0,29.77,SSW,213,1.0,2.0,83,0.00,,---,0.00,0.00,VWS V14.01,2013-03-31 10:30:00,
2013-03-31 06:33:00,39.7,35.0,29.77,SSW,207,2.0,6.0,83,0.00,,---,0.00,0.00,VWS V14.01,2013-03-31 10:33:00,
2013-03-31 06:38:00,40.0,34.7,29.77,SSW,203,0.0,6.0,81,0.00,,---,0.00,0.00,VWS V14.01,2013-03-31 10:38:00,
2013-03-31 06:43:00,40.4,35.0,29.77,SSW,203,0.0,6.0,81,0.00,,---,0.00,0.00,VWS V14.01,2013-03-31 10:43:00,
2013-03-31 06:49:00,40.7,35.3,29.77,SSW,202,0.0,6.0,81,0.00,,---,0.00,0.00,VWS V14.01,2013-03-31 10:49:00,
2013-03-31 06:54:00,41.1,35.4,29.77,SSW,201,3.0,6.0,80,0.00,,---,0.00,0.00,VWS V14.01,2013-03-31 10:54:00,
2013-03-31 06:59:00,41.7,35.7,29.77,South,188,2.0,6.0,79,0.00,,---,0.00,0.00,VWS V14.01,2013-03-31 10:59:00,
2013-03-31 07:00:00,41.9,35.9,29.77,South,182,2.0,6.0,79,0.00,,---,0.00,0.00,VWS V14.01,2013-03-31 11:00:00,
2013-03-31 07:04:00,42.3,35.9,29.77,South,171,3.0,6.0,78,0.00,,---,0.00,0.00,VWS V14.01,2013-03-31 11:04:00,
2013-03-31 07:09:00,42.9,36.2,29.77,South,171,4.0,6.0,77,0.00,,---,0.00,0.00,VWS V14.01,2013-03-31 11:09:00,
2013-03-31 07:14:00,43.3,36.9,29.77,SSE,167,2.0,6.0,78,0.00,,---,0.00,0.00,VWS V14.01,2013-03-31 11:14:00,
2013-03-31 07:19:00,43.5,37.1,29.77,South,175,3.0,6.0,78,0.00,,---,0.00,0.00,VWS V14.01,2013-03-31 11:19:00,
2013-03-31 07:24:00,43.6,37.5,29.77,South,170,0.0,6.0,79,0.01,,---,0.01,0.00,VWS V14.01,2013-03-31 11:24:00,
2013-03-31 07:29:00,43.7,38.0,29.77,SSE,167,2.0,6.0,80,0.01,,---,0.01,0.00,VWS V14.01,2013-03-31 11:29:00,
2013-03-31 07:30:00,43.8,38.0,29.77,SSE,167,2.0,6.0,80,0.01,,---,0.01,0.00,VWS V14.01,2013-03-31 11:30:00,
2013-03-31 07:34:00,43.7,38.3,29.77,SSE,166,3.0,5.0,81,0.01,,---,0.01,0.00,VWS V14.01,2013-03-31 11:34:00,
2013-03-31 07:39:00,43.7,38.6,29.77,South,173,4.0,5.0,82,0.01,,---,0.01,0.00,VWS V14.01,2013-03-31 11:39:00,
2013-03-31 07:44:00,43.8,39.0,29.77,South,171,2.0,5.0,83,0.01,,---,0.01,5.00,VWS V14.01,2013-03-31 11:44:00,
2013-03-31 07:49:00,43.9,39.1,29.78,South,179,0.0,6.0,83,0.02,,---,0.02,9.00,VWS V14.01,2013-03-31 11:49:00,
2013-03-31 07:54:00,43.9,39.4,29.78,South,179,1.0,6.0,84,0.02,,---,0.02,11.00,VWS V14.01,2013-03-31 11:54:00,
2013-03-31 07:59:00,43.9,39.7,29.77,South,179,2.0,6.0,85,0.02,,---,0.02,16.00,VWS V14.01,2013-03-31 11:59:00,
2013-03-31 08:00:00,43.9,39.7,29.77,South,179,0.0,6.0,85,0.02,,---,0.02,19.00,VWS V14.01,2013-03-31 12:00:00,
2013-03-31 08:04:00,43.9,39.7,29.78,SSE,161,0.0,3.0,85,0.02,,---,0.02,30.00,VWS V14.01,2013-03-31 12:04:00,
2013-03-31 08:09:00,43.9,40.0,29.78,SSE,162,3.0,3.0,86,0.02,,---,0.02,42.00,VWS V14.01,2013-03-31 12:09:00,
2013-03-31 08:14:00,43.9,40.0,29.78,South,169,3.0,5.0,86,0.02,,---,0.02,40.00,VWS V14.01,2013-03-31 12:14:00,
2013-03-31 08:19:00,43.8,40.2,29.78,SSE,168,0.0,5.0,87,0.02,,---,0.02,25.00,VWS V14.01,2013-03-31 12:19:00,
2013-03-31 08:24:00,43.8,40.2,29.78,SSE,167,0.0,5.0,87,0.02,,---,0.02,21.00,VWS V14.01,2013-03-31 12:24:00,
2013-03-31 08:29:00,43.6,40.0,29.78,SSE,167,0.0,5.0,87,0.02,,---,0.02,16.00,VWS V14.01,2013-03-31 12:29:00,
2013-03-31 08:30:00,43.6,40.0,29.78,SSE,167,1.0,5.0,87,0.02,,---,0.02,16.00,VWS V14.01,2013-03-31 12:30:00,
2013-03-31 08:34:00,43.4,39.8,29.78,SSE,167,0.0,3.0,87,0.01,,---,0.02,25.00,VWS V14.01,2013-03-31 12:34:00,
2013-03-31 08:39:00,43.4,39.8,29.78,SSE,167,1.0,3.0,87,0.01,,---,0.02,26.00,VWS V14.01,2013-03-31 12:39:00,
2013-03-31 08:44:00,43.3,39.7,29.78,SSE,167,0.0,3.0,87,0.01,,---,0.02,67.00,VWS V14.01,2013-03-31 12:44:00,
2013-03-31 08:49:00,43.2,39.6,29.78,SSE,167,1.0,3.0,87,0.01,,---,0.02,58.00,VWS V14.01,2013-03-31 12:49:00,
2013-03-31 08:54:00,43.3,40.0,29.77,SSE,167,0.0,3.0,88,0.01,,---,0.02,42.00,VWS V14.01,2013-03-31 12:54:00,
2013-03-31 08:59:00,43.3,40.0,29.77,SSE,167,0.0,3.0,88,0.01,,---,0.02,56.00,VWS V14.01,2013-03-31 12:59:00,
2013-03-31 09:00:00,43.3,40.0,29.77,SSE,167,1.0,3.0,88,0.01,,---,0.02,63.00,VWS V14.01,2013-03-31 13:00:00,
2013-03-31 09:04:00,43.2,39.9,29.77,SSE,167,0.0,2.0,88,0.00,,---,0.02,81.00,VWS V14.01,2013-03-31 13:04:00,
2013-03-31 09:09:00,43.4,40.4,29.77,SSE,167,0.0,2.0,89,0.00,,---,0.02,83.00,VWS V14.01,2013-03-31 13:09:00,
2013-03-31 09:14:00,43.4,40.4,29.77,SSE,167,0.0,2.0,89,0.00,,---,0.02,62.00,VWS V14.01,2013-03-31 13:14:00,
2013-03-31 09:19:00,43.6,40.6,29.77,SSE,167,0.0,2.0,89,0.00,,---,0.02,84.00,VWS V14.01,2013-03-31 13:19:00,
2013-03-31 09:24:00,43.7,40.7,29.76,SSE,167,0.0,2.0,89,0.00,,---,0.02,81.00,VWS V14.01,2013-03-31 13:24:00,
2013-03-31 09:29:00,43.8,41.1,29.76,SSE,167,0.0,2.0,90,0.00,,---,0.02,130.00,VWS V14.01,2013-03-31 13:29:00,
2013-03-31 09:30:00,43.8,41.1,29.76,SSE,167,0.0,2.0,90,0.00,,---,0.02,130.00,VWS V14.01,2013-03-31 13:30:00,
2013-03-31 09:34:00,43.9,41.2,29.76,SSE,167,0.0,1.0,90,0.00,,---,0.02,98.00,VWS V14.01,2013-03-31 13:34:00,
2013-03-31 09:39:00,44.1,41.4,29.76,SSE,167,0.0,1.0,90,0.00,,---,0.02,63.00,VWS V14.01,2013-03-31 13:39:00,
2013-03-31 09:44:00,44.2,41.5,29.76,SSE,167,0.0,1.0,90,0.01,,---,0.03,54.00,VWS V14.01,2013-03-31 13:44:00,
2013-03-31 09:49:00,44.3,41.6,29.75,SSE,167,0.0,1.0,90,0.01,,---,0.03,83.00,VWS V14.01,2013-03-31 13:49:00,
2013-03-31 09:54:00,44.5,41.8,29.75,SSE,167,0.0,1.0,90,0.01,,---,0.03,102.00,VWS V14.01,2013-03-31 13:54:00,
2013-03-31 10:00:00,44.6,41.8,29.75,SSE,167,0.0,1.0,90,0.01,,---,0.03,104.00,VWS V14.01,2013-03-31 14:00:00,
2013-03-31 10:05:00,44.7,42.0,29.75,SSE,167,0.0,1.0,90,0.01,,---,0.03,93.00,VWS V14.01,2013-03-31 14:05:00,
2013-03-31 10:10:00,44.8,42.0,29.75,SSE,167,0.0,1.0,90,0.01,,---,0.03,95.00,VWS V14.01,2013-03-31 14:10:00,
2013-03-31 10:15:00,44.9,42.2,29.75,SSE,167,0.0,1.0,90,0.01,,---,0.03,97.00,VWS V14.01,2013-03-31 14:15:00,
2013-03-31 10:20:00,45.0,42.2,29.75,SSE,167,0.0,1.0,90,0.01,,---,0.03,120.00,VWS V14.01,2013-03-31 14:20:00,
2013-03-31 10:25:00,45.1,42.6,29.74,SSE,167,0.0,1.0,91,0.01,,---,0.03,142.00,VWS V14.01,2013-03-31 14:25:00,
2013-03-31 10:30:00,45.3,42.8,29.74,SSE,167,0.0,1.0,91,0.01,,---,0.03,123.00,VWS V14.01,2013-03-31 14:30:00,
2013-03-31 10:35:00,45.5,43.0,29.74,SSE,167,0.0,0.0,91,0.01,,---,0.03,104.00,VWS V14.01,2013-03-31 14:35:00,
2013-03-31 10:40:00,45.7,42.9,29.74,SSE,167,0.0,0.0,90,0.01,,---,0.03,107.00,VWS V14.01,2013-03-31 14:40:00,
2013-03-31 10:45:00,45.9,43.1,29.74,SSE,167,0.0,0.0,90,0.01,,---,0.03,127.00,VWS V14.01,2013-03-31 14:45:00,
2013-03-31 10:50:00,46.0,43.2,29.74,SSE,167,0.0,0.0,90,0.01,,---,0.03,148.00,VWS V14.01,2013-03-31 14:50:00,
2013-03-31 10:55:00,46.1,43.3,29.74,SSE,167,0.0,0.0,90,0.01,,---,0.03,141.00,VWS V14.01,2013-03-31 14:55:00,
2013-03-31 11:00:00,46.3,43.5,29.73,SSE,167,0.0,1.0,90,0.01,,---,0.03,141.00,VWS V14.01,2013-03-31 15:00:00,
2013-03-31 11:05:00,46.5,43.7,29.74,SSE,167,0.0,1.0,90,0.00,,---,0.03,151.00,VWS V14.01,2013-03-31 15:05:00,
2013-03-31 11:10:00,46.7,43.9,29.74,SSE,167,0.0,1.0,90,0.00,,---,0.03,132.00,VWS V14.01,2013-03-31 15:10:00,
2013-03-31 11:15:00,46.8,44.0,29.74,SSE,167,0.0,2.0,90,0.00,,---,0.03,135.00,VWS V14.01,2013-03-31 15:15:00,
2013-03-31 11:20:00,46.9,44.1,29.74,SSE,167,3.0,3.0,90,0.00,,---,0.03,107.00,VWS V14.01,2013-03-31 15:20:00,
2013-03-31 11:25:00,47.0,44.2,29.74,SSE,167,3.0,3.0,90,0.00,,---,0.03,105.00,VWS V14.01,2013-03-31 15:25:00,
2013-03-31 11:30:00,47.0,44.2,29.74,SSE,167,3.0,5.0,90,0.00,,---,0.03,107.00,VWS V14.01,2013-03-31 15:30:00,
2013-03-31 11:35:00,47.0,43.9,29.74,SSE,167,4.0,4.0,89,0.00,,---,0.03,97.00,VWS V14.01,2013-03-31 15:35:00,
2013-03-31 11:40:00,47.0,43.9,29.74,SSW,203,3.0,5.0,89,0.00,,---,0.03,83.00,VWS V14.01,2013-03-31 15:40:00,
2013-03-31 11:45:00,47.0,43.9,29.75,SSW,211,4.0,5.0,89,0.00,,---,0.03,114.00,VWS V14.01,2013-03-31 15:45:00,
2013-03-31 11:50:00,46.9,43.8,29.74,WSW,248,2.0,6.0,89,0.00,,---,0.03,86.00,VWS V14.01,2013-03-31 15:50:00,
2013-03-31 11:55:00,46.8,43.7,29.74,WSW,249,3.0,6.0,89,0.00,,---,0.03,90.00,VWS V14.01,2013-03-31 15:55:00,
2013-03-31 12:00:00,46.7,43.6,29.75,WSW,249,2.0,2.0,89,0.00,,---,0.03,95.00,VWS V14.01,2013-03-31 16:00:00,
2013-03-31 12:05:00,46.6,43.5,29.74,WSW,249,2.0,4.0,89,0.00,,---,0.03,125.00,VWS V14.01,2013-03-31 16:05:00,
2013-03-31 12:10:00,46.5,43.4,29.75,WSW,249,4.0,4.0,89,0.00,,---,0.03,100.00,VWS V14.01,2013-03-31 16:10:00,
2013-03-31 12:15:00,46.5,43.7,29.75,WSW,249,2.0,4.0,90,0.00,,---,0.03,58.00,VWS V14.01,2013-03-31 16:15:00,
2013-03-31 12:20:00,46.5,43.7,29.75,WSW,249,2.0,4.0,90,0.00,,---,0.03,54.00,VWS V14.01,2013-03-31 16:20:00,
2013-03-31 12:25:00,46.4,43.9,29.75,WSW,249,0.0,4.0,91,0.00,,---,0.03,58.00,VWS V14.01,2013-03-31 16:25:00,
2013-03-31 12:30:00,46.4,43.9,29.75,SW,229,0.0,0.0,91,0.00,,---,0.03,62.00,VWS V14.01,2013-03-31 16:30:00,
2013-03-31 12:35:00,46.4,43.9,29.75,SW,229,4.0,4.0,91,0.00,,---,0.03,49.00,VWS V14.01,2013-03-31 16:35:00,
2013-03-31 12:40:00,46.4,43.9,29.75,SW,225,1.0,6.0,91,0.00,,---,0.03,70.00,VWS V14.01,2013-03-31 16:40:00,
2013-03-31 12:45:00,46.4,44.2,29.75,SSW,192,2.0,6.0,92,0.00,,---,0.03,90.00,VWS V14.01,2013-03-31 16:45:00,
2013-03-31 12:50:00,46.4,44.2,29.75,SSW,207,4.0,6.0,92,0.00,,---,0.03,100.00,VWS V14.01,2013-03-31 16:50:00,
2013-03-31 12:55:00,46.4,44.2,29.75,SSW,207,3.0,6.0,92,0.00,,---,0.03,88.00,VWS V14.01,2013-03-31 16:55:00,
2013-03-31 13:00:00,46.4,44.2,29.75,SSW,213,4.0,4.0,92,0.00,,---,0.03,105.00,VWS V14.01,2013-03-31 17:00:00,
2013-03-31 13:05:00,46.5,44.3,29.75,SW,218,4.0,6.0,92,0.00,,---,0.03,116.00,VWS V14.01,2013-03-31 17:05:00,
2013-03-31 13:10:00,46.6,44.7,29.75,SSW,212,6.0,7.0,93,0.00,,---,0.03,134.00,VWS V14.01,2013-03-31 17:10:00,
2013-03-31 13:15:00,46.7,44.8,29.74,SSW,207,4.0,7.0,93,0.00,,---,0.03,135.00,VWS V14.01,2013-03-31 17:15:00,
2013-03-31 13:20:00,46.8,44.9,29.74,WSW,244,5.0,7.0,93,0.00,,---,0.03,81.00,VWS V14.01,2013-03-31 17:20:00,
2013-03-31 13:25:00,46.8,44.9,29.74,SW,215,4.0,7.0,93,0.00,,---,0.03,86.00,VWS V14.01,2013-03-31 17:25:00,
2013-03-31 13:30:00,46.9,45.0,29.73,SW,217,2.0,4.0,93,0.00,,---,0.03,102.00,VWS V14.01,2013-03-31 17:30:00,
2013-03-31 13:35:00,47.0,45.1,29.73,WSW,237,2.0,4.0,93,0.00,,---,0.03,183.00,VWS V14.01,2013-03-31 17:35:00,
2013-03-31 13:40:00,47.1,45.2,29.73,WSW,239,4.0,8.0,93,0.00,,---,0.03,121.00,VWS V14.01,2013-03-31 17:40:00,
2013-03-31 13:45:00,47.2,45.3,29.73,SW,232,5.0,9.0,93,0.00,,---,0.03,155.00,VWS V14.01,2013-03-31 17:45:00,
2013-03-31 13:50:00,47.3,45.4,29.73,SW,230,5.0,9.0,93,0.00,,---,0.03,183.00,VWS V14.01,2013-03-31 17:50:00,
2013-03-31 13:55:00,47.4,45.5,29.73,WSW,242,7.0,11.0,93,0.00,,---,0.03,141.00,VWS V14.01,2013-03-31 17:55:00,
2013-03-31 14:00:00,47.6,45.7,29.73,WSW,239,6.0,7.0,93,0.00,,---,0.03,156.00,VWS V14.01,2013-03-31 18:00:00,
2013-03-31 14:05:00,47.7,45.8,29.73,SW,229,5.0,10.0,93,0.00,,---,0.03,118.00,VWS V14.01,2013-03-31 18:05:00,
2013-03-31 14:11:00,47.7,45.8,29.73,SW,215,6.0,10.0,93,0.00,,---,0.03,176.00,VWS V14.01,2013-03-31 18:11:00,
2013-03-31 14:16:00,47.9,46.0,29.73,SSW,207,6.0,11.0,93,0.00,,---,0.03,190.00,VWS V14.01,2013-03-31 18:16:00,
2013-03-31 14:21:00,48.0,46.1,29.73,SW,232,10.0,11.0,93,0.00,,---,0.03,137.00,VWS V14.01,2013-03-31 18:21:00,
2013-03-31 14:26:00,48.0,45.8,29.73,SW,219,12.0,12.0,92,0.00,,---,0.03,107.00,VWS V14.01,2013-03-31 18:26:00,
2013-03-31 14:30:00,48.0,45.5,29.72,SW,227,4.0,12.0,91,0.00,,---,0.03,127.00,VWS V14.01,2013-03-31 18:30:00,
2013-03-31 14:31:00,48.0,45.5,29.72,SW,235,4.0,7.0,91,0.00,,---,0.03,153.00,VWS V14.01,2013-03-31 18:31:00,
2013-03-31 14:37:00,48.2,45.7,29.72,WSW,247,9.0,10.0,91,0.00,,---,0.03,146.00,VWS V14.01,2013-03-31 18:37:00,
2013-03-31 14:42:00,48.3,45.5,29.72,SW,236,4.0,11.0,90,0.00,,---,0.03,186.00,VWS V14.01,2013-03-31 18:42:00,
2013-03-31 14:47:00,48.5,45.7,29.72,WSW,238,4.0,11.0,90,0.00,,---,0.03,139.00,VWS V14.01,2013-03-31 18:47:00,
2013-03-31 14:52:00,48.6,45.8,29.71,WSW,246,9.0,12.0,90,0.00,,---,0.03,279.00,VWS V14.01,2013-03-31 18:52:00,
2013-03-31 14:57:00,48.9,46.1,29.71,SW,228,7.0,13.0,90,0.00,,---,0.03,431.00,VWS V14.01,2013-03-31 18:57:00,
2013-03-31 15:00:00,49.0,46.2,29.70,SW,227,7.0,13.0,90,0.00,,---,0.03,446.00,VWS V14.01,2013-03-31 19:00:00,
2013-03-31 15:02:00,49.1,46.0,29.70,SW,232,7.0,11.0,89,0.00,,---,0.03,339.00,VWS V14.01,2013-03-31 19:02:00,
2013-03-31 15:07:00,49.4,46.3,29.70,SSW,204,10.0,11.0,89,0.00,,---,0.03,323.00,VWS V14.01,2013-03-31 19:07:00,
2013-03-31 15:12:00,49.5,46.4,29.70,SW,227,9.0,13.0,89,0.00,,---,0.03,295.00,VWS V14.01,2013-03-31 19:12:00,
2013-03-31 15:17:00,49.6,46.2,29.70,SSW,213,9.0,13.0,88,0.00,,---,0.03,127.00,VWS V14.01,2013-03-31 19:17:00,
2013-03-31 15:22:00,49.5,45.8,29.70,SSW,212,5.0,13.0,87,0.00,,---,0.03,109.00,VWS V14.01,2013-03-31 19:22:00,
2013-03-31 15:27:00,49.4,46.0,29.70,SW,231,9.0,13.0,88,0.00,,---,0.03,114.00,VWS V14.01,2013-03-31 19:27:00,
2013-03-31 15:30:00,49.4,46.0,29.70,SW,227,6.0,13.0,88,0.00,,---,0.03,151.00,VWS V14.01,2013-03-31 19:30:00,
2013-03-31 15:32:00,49.4,46.0,29.70,SW,228,4.0,9.0,88,0.00,,---,0.03,120.00,VWS V14.01,2013-03-31 19:32:00,
2013-03-31 15:37:00,49.5,46.1,29.70,SW,234,7.0,10.0,88,0.00,,---,0.03,70.00,VWS V14.01,2013-03-31 19:37:00,
2013-03-31 15:42:00,49.5,46.1,29.70,WSW,238,5.0,13.0,88,0.00,,---,0.03,37.00,VWS V14.01,2013-03-31 19:42:00,
2013-03-31 15:47:00,49.4,45.7,29.70,WSW,238,11.0,14.0,87,0.00,,---,0.03,56.00,VWS V14.01,2013-03-31 19:47:00,
2013-03-31 15:52:00,49.4,45.7,29.70,SW,224,6.0,15.0,87,0.00,,---,0.03,53.00,VWS V14.01,2013-03-31 19:52:00,
2013-03-31 15:57:00,49.4,45.7,29.70,SW,217,5.0,15.0,87,0.00,,---,0.03,56.00,VWS V14.01,2013-03-31 19:57:00,
2013-03-31 16:00:00,49.4,46.0,29.70,SW,227,7.0,15.0,88,0.00,,---,0.03,76.00,VWS V14.01,2013-03-31 20:00:00,
2013-03-31 16:02:00,49.4,46.0,29.70,SW,230,10.0,12.0,88,0.00,,---,0.03,70.00,VWS V14.01,2013-03-31 20:02:00,
2013-03-31 16:07:00,49.4,45.7,29.70,SW,232,5.0,16.0,87,0.00,,---,0.03,90.00,VWS V14.01,2013-03-31 20:07:00,
2013-03-31 16:12:00,49.4,46.0,29.69,SW,232,9.0,16.0,88,0.00,,---,0.03,127.00,VWS V14.01,2013-03-31 20:12:00,
2013-03-31 16:18:00,49.6,46.2,29.69,SW,236,4.0,16.0,88,0.00,,---,0.03,279.00,VWS V14.01,2013-03-31 20:18:00,
2013-03-31 16:23:00,49.9,46.5,29.69,SSW,211,10.0,18.0,88,0.00,,---,0.03,193.00,VWS V14.01,2013-03-31 20:23:00,
2013-03-31 16:28:00,50.2,46.5,29.69,SW,226,9.0,18.0,87,0.00,,---,0.03,120.00,VWS V14.01,2013-03-31 20:28:00,
2013-03-31 16:30:00,50.2,46.5,29.69,SW,221,11.0,18.0,87,0.00,,---,0.03,102.00,VWS V14.01,2013-03-31 20:30:00,
2013-03-31 16:33:00,50.2,46.2,29.69,SW,220,13.0,14.0,86,0.00,,---,0.03,79.00,VWS V14.01,2013-03-31 20:33:00,
2013-03-31 16:38:00,50.1,46.1,29.69,SW,232,5.0,15.0,86,0.00,,---,0.03,72.00,VWS V14.01,2013-03-31 20:38:00,
2013-03-31 16:43:00,50.1,46.1,29.69,WSW,258,12.0,15.0,86,0.00,,---,0.03,113.00,VWS V14.01,2013-03-31 20:43:00,
2013-03-31 16:48:00,50.0,46.0,29.69,WSW,250,8.0,16.0,86,0.00,,---,0.03,128.00,VWS V14.01,2013-03-31 20:48:00,
2013-03-31 16:53:00,50.0,46.0,29.69,WSW,246,8.0,17.0,86,0.00,,---,0.03,105.00,VWS V14.01,2013-03-31 20:53:00,
2013-03-31 16:58:00,50.0,46.0,29.69,SW,235,9.0,17.0,86,0.00,,---,0.03,79.00,VWS V14.01,2013-03-31 20:58:00,
2013-03-31 17:00:00,50.0,46.0,29.69,SW,229,7.0,17.0,86,0.00,,---,0.03,97.00,VWS V14.01,2013-03-31 21:00:00,
2013-03-31 17:03:00,50.0,46.0,29.69,SW,236,13.0,15.0,86,0.00,,---,0.03,144.00,VWS V14.01,2013-03-31 21:03:00,
2013-03-31 17:08:00,50.1,46.4,29.69,WSW,238,9.0,15.0,87,0.00,,---,0.03,178.00,VWS V14.01,2013-03-31 21:08:00,
2013-03-31 17:13:00,50.3,46.6,29.69,WSW,237,5.0,15.0,87,0.00,,---,0.03,269.00,VWS V14.01,2013-03-31 21:13:00,
2013-03-31 17:18:00,50.6,46.9,29.69,West,266,11.0,15.0,87,0.00,,---,0.03,251.00,VWS V14.01,2013-03-31 21:18:00,
2013-03-31 17:23:00,50.8,46.8,29.69,SW,226,7.0,15.0,86,0.00,,---,0.03,214.00,VWS V14.01,2013-03-31 21:23:00,
2013-03-31 17:28:00,51.1,47.4,29.69,SW,232,5.0,15.0,87,0.00,,---,0.03,587.00,VWS V14.01,2013-03-31 21:28:00,
2013-03-31 17:30:00,51.3,47.6,29.69,SW,232,10.0,15.0,87,0.00,,---,0.03,253.00,VWS V14.01,2013-03-31 21:30:00,
2013-03-31 17:33:00,51.5,47.5,29.69,WSW,242,13.0,13.0,86,0.00,,---,0.03,181.00,VWS V14.01,2013-03-31 21:33:00,
2013-03-31 17:38:00,51.7,47.3,29.68,WSW,250,7.0,14.0,85,0.00,,---,0.03,436.00,VWS V14.01,2013-03-31 21:38:00,
2013-03-31 17:43:00,52.0,47.6,29.68,West,267,10.0,16.0,85,0.00,,---,0.03,216.00,VWS V14.01,2013-03-31 21:43:00,
2013-03-31 17:48:00,52.3,47.3,29.68,WSW,238,11.0,16.0,83,0.00,,---,0.03,134.00,VWS V14.01,2013-03-31 21:48:00,
2013-03-31 17:53:00,52.3,47.0,29.68,WSW,246,5.0,21.0,82,0.00,,---,0.03,134.00,VWS V14.01,2013-03-31 21:53:00,
2013-03-31 17:58:00,52.2,46.9,29.68,SW,236,7.0,21.0,82,0.00,,---,0.03,134.00,VWS V14.01,2013-03-31 21:58:00,
2013-03-31 18:00:00,52.2,46.9,29.68,WSW,247,7.0,21.0,82,0.00,,---,0.03,114.00,VWS V14.01,2013-03-31 22:00:00,
2013-03-31 18:03:00,52.2,46.9,29.68,SSW,211,4.0,9.0,82,0.00,,---,0.03,188.00,VWS V14.01,2013-03-31 22:03:00,
2013-03-31 18:08:00,52.2,46.9,29.68,SW,227,7.0,14.0,82,0.00,,---,0.03,155.00,VWS V14.01,2013-03-31 22:08:00,
2013-03-31 18:13:00,52.4,46.8,29.68,SW,236,6.0,14.0,81,0.00,,---,0.03,257.00,VWS V14.01,2013-03-31 22:13:00,
2013-03-31 18:18:00,52.5,46.5,29.68,WSW,246,7.0,14.0,80,0.00,,---,0.03,139.00,VWS V14.01,2013-03-31 22:18:00,
2013-03-31 18:23:00,52.4,46.4,29.68,WSW,239,5.0,14.0,80,0.00,,---,0.03,113.00,VWS V14.01,2013-03-31 22:23:00,
2013-03-31 18:28:00,52.4,46.4,29.68,South,190,10.0,14.0,80,0.00,,---,0.03,91.00,VWS V14.01,2013-03-31 22:28:00,
2013-03-31 18:30:00,52.4,46.4,29.68,SW,232,6.0,14.0,80,0.00,,---,0.03,174.00,VWS V14.01,2013-03-31 22:30:00,
2013-03-31 18:33:00,52.5,46.5,29.68,WSW,242,7.0,11.0,80,0.00,,---,0.03,142.00,VWS V14.01,2013-03-31 22:33:00,
2013-03-31 18:38:00,52.4,45.4,29.68,West,261,12.0,15.0,77,0.00,,---,0.03,232.00,VWS V14.01,2013-03-31 22:38:00,
2013-03-31 18:43:00,52.7,45.0,29.69,WSW,252,5.0,15.0,75,0.00,,---,0.03,93.00,VWS V14.01,2013-03-31 22:43:00,
2013-03-31 18:48:00,52.8,44.8,29.69,WSW,240,10.0,15.0,74,0.00,,---,0.03,95.00,VWS V14.01,2013-03-31 22:48:00,
2013-03-31 18:53:00,52.7,44.3,29.69,WSW,244,6.0,16.0,73,0.00,,---,0.03,113.00,VWS V14.01,2013-03-31 22:53:00,
2013-03-31 18:58:00,52.6,43.8,29.69,WSW,249,10.0,16.0,72,0.00,,---,0.03,72.00,VWS V14.01,2013-03-31 22:58:00,
2013-03-31 19:00:00,52.6,43.8,29.69,WSW,250,10.0,16.0,72,0.00,,---,0.03,81.00,VWS V14.01,2013-03-31 23:00:00,
2013-03-31 19:03:00,52.5,44.1,29.69,WSW,241,5.0,11.0,73,0.00,,---,0.03,62.00,VWS V14.01,2013-03-31 23:03:00,
2013-03-31 19:08:00,52.3,43.9,29.69,WSW,237,6.0,13.0,73,0.00,,---,0.03,60.00,VWS V14.01,2013-03-31 23:08:00,
2013-03-31 19:13:00,52.2,44.2,29.70,WSW,242,6.0,13.0,74,0.00,,---,0.03,81.00,VWS V14.01,2013-03-31 23:13:00,
2013-03-31 19:18:00,52.1,43.7,29.69,WSW,239,6.0,13.0,73,0.00,,---,0.03,53.00,VWS V14.01,2013-03-31 23:18:00,
2013-03-31 19:23:00,51.9,43.5,29.70,SW,225,4.0,13.0,73,0.00,,---,0.03,28.00,VWS V14.01,2013-03-31 23:23:00,
2013-03-31 19:29:00,51.7,43.3,29.70,SW,215,11.0,13.0,73,0.00,,---,0.03,19.00,VWS V14.01,2013-03-31 23:29:00,
2013-03-31 19:30:00,51.6,43.2,29.70,SW,235,3.0,13.0,73,0.00,,---,0.03,19.00,VWS V14.01,2013-03-31 23:30:00,
2013-03-31 19:34:00,51.4,43.4,29.70,SW,234,6.0,8.0,74,0.00,,---,0.03,16.00,VWS V14.01,2013-03-31 23:34:00,
2013-03-31 19:39:00,51.0,43.0,29.70,SW,228,4.0,8.0,74,0.00,,---,0.03,12.00,VWS V14.01,2013-03-31 23:39:00,
2013-03-31 19:44:00,50.7,42.7,29.71,SW,228,4.0,8.0,74,0.00,,---,0.03,9.00,VWS V14.01,2013-03-31 23:44:00,
2013-03-31 19:49:00,50.5,42.9,29.71,SSW,199,5.0,11.0,75,0.00,,---,0.03,5.00,VWS V14.01,2013-03-31 23:49:00,
2013-03-31 19:54:00,50.5,42.9,29.71,SW,217,3.0,11.0,75,0.00,,---,0.03,0.00,VWS V14.01,2013-03-31 23:54:00,
2013-03-31 19:59:00,50.4,43.1,29.71,SW,233,9.0,11.0,76,0.00,,---,0.03,0.00,VWS V14.01,2013-03-31 23:59:00,
2013-03-31 20:00:00,50.4,43.1,29.71,SSW,208,5.0,11.0,76,0.00,,---,0.03,0.00,VWS V14.01,2013-04-01 00:00:00,
2013-03-31 20:04:00,50.3,43.0,29.71,SW,222,5.0,7.0,76,0.00,,---,0.03,0.00,VWS V14.01,2013-04-01 00:04:00,
2013-03-31 20:09:00,50.2,42.9,29.71,SW,221,2.0,7.0,76,0.00,,---,0.03,0.00,VWS V14.01,2013-04-01 00:09:00,
2013-03-31 20:14:00,50.2,42.9,29.71,SSW,201,7.0,11.0,76,0.00,,---,0.03,0.00,VWS V14.01,2013-04-01 00:14:00,
2013-03-31 20:19:00,50.2,42.9,29.71,SW,216,4.0,11.0,76,0.00,,---,0.03,0.00,VWS V14.01,2013-04-01 00:19:00,
2013-03-31 20:24:00,50.1,42.8,29.71,SW,222,3.0,11.0,76,0.00,,---,0.03,0.00,VWS V14.01,2013-04-01 00:24:00,
2013-03-31 20:29:00,50.1,42.8,29.71,SW,218,7.0,11.0,76,0.00,,---,0.03,0.00,VWS V14.01,2013-04-01 00:29:00,
2013-03-31 20:30:00,50.1,42.8,29.71,SSW,212,5.0,11.0,76,0.00,,---,0.03,0.00,VWS V14.01,2013-04-01 00:30:00,
2013-03-31 20:34:00,50.0,42.7,29.71,SSW,210,5.0,6.0,76,0.00,,---,0.03,0.00,VWS V14.01,2013-04-01 00:34:00,
2013-03-31 20:39:00,49.9,42.7,29.71,SSW,207,4.0,10.0,76,0.00,,---,0.03,0.00,VWS V14.01,2013-04-01 00:39:00,
2013-03-31 20:44:00,49.8,42.5,29.71,SSW,212,4.0,10.0,76,0.00,,---,0.03,0.00,VWS V14.01,2013-04-01 00:44:00,
2013-03-31 20:49:00,49.6,42.4,29.71,SSW,209,4.0,10.0,76,0.00,,---,0.03,0.00,VWS V14.01,2013-04-01 00:49:00,
2013-03-31 20:54:00,49.4,42.2,29.71,SSW,205,3.0,10.0,76,0.00,,---,0.03,0.00,VWS V14.01,2013-04-01 00:54:00,
2013-03-31 20:59:00,49.3,42.1,29.71,SSW,196,2.0,10.0,76,0.00,,---,0.03,0.00,VWS V14.01,2013-04-01 00:59:00,
2013-03-31 21:00:00,49.2,42.0,29.71,SSW,198,4.0,10.0,76,0.00,,---,0.03,0.00,VWS V14.01,2013-04-01 01:00:00,
2013-03-31 21:04:00,49.1,42.2,29.71,SSW,204,5.0,10.0,77,0.00,,---,0.03,0.00,VWS V14.01,2013-04-01 01:04:00,
2013-03-31 21:09:00,48.9,42.0,29.71,SW,215,7.0,10.0,77,0.00,,---,0.03,0.00,VWS V14.01,2013-04-01 01:09:00,
2013-03-31 21:14:00,48.8,41.9,29.71,SSW,200,8.0,11.0,77,0.00,,---,0.03,0.00,VWS V14.01,2013-04-01 01:14:00,
2013-03-31 21:19:00,48.7,42.2,29.71,SSW,209,6.0,11.0,78,0.00,,---,0.03,0.00,VWS V14.01,2013-04-01 01:19:00,
2013-03-31 21:24:00,48.7,42.2,29.71,SSW,209,4.0,12.0,78,0.00,,---,0.03,0.00,VWS V14.01,2013-04-01 01:24:00,
2013-03-31 21:29:00,48.6,42.1,29.70,SW,219,4.0,12.0,78,0.00,,---,0.03,0.00,VWS V14.01,2013-04-01 01:29:00,
2013-03-31 21:30:00,48.6,42.1,29.70,SW,215,6.0,12.0,78,0.00,,---,0.03,0.00,VWS V14.01,2013-04-01 01:30:00,
2013-03-31 21:34:00,48.6,42.1,29.70,SSW,209,4.0,10.0,78,0.00,,---,0.03,0.00,VWS V14.01,2013-04-01 01:34:00,
2013-03-31 21:39:00,48.5,42.0,29.70,SSW,210,4.0,10.0,78,0.00,,---,0.03,0.00,VWS V14.01,2013-04-01 01:39:00,
2013-03-31 21:44:00,48.3,41.8,29.71,SSW,211,3.0,10.0,78,0.00,,---,0.03,0.00,VWS V14.01,2013-04-01 01:44:00,
2013-03-31 21:49:00,48.2,42.0,29.71,SSW,211,4.0,11.0,79,0.00,,---,0.03,0.00,VWS V14.01,2013-04-01 01:49:00,
2013-03-31 21:54:00,48.1,41.9,29.71,South,190,6.0,11.0,79,0.00,,---,0.03,0.00,VWS V14.01,2013-04-01 01:54:00,
2013-03-31 21:59:00,47.9,41.7,29.71,SSW,205,5.0,11.0,79,0.00,,---,0.03,0.00,VWS V14.01,2013-04-01 01:59:00,
2013-03-31 22:00:00,47.9,41.7,29.71,SSW,199,4.0,11.0,79,0.00,,---,0.03,0.00,VWS V14.01,2013-04-01 02:00:00,
2013-03-31 22:04:00,47.8,41.6,29.70,SSW,199,7.0,9.0,79,0.00,,---,0.03,0.00,VWS V14.01,2013-04-01 02:04:00,
2013-03-31 22:09:00,47.6,41.4,29.70,SSW,202,4.0,9.0,79,0.00,,---,0.03,0.00,VWS V14.01,2013-04-01 02:09:00,
2013-03-31 22:14:00,47.6,41.4,29.70,SSW,207,5.0,11.0,79,0.00,,---,0.03,0.00,VWS V14.01,2013-04-01 02:14:00,
2013-03-31 22:19:00,47.4,41.2,29.70,SSW,208,5.0,11.0,79,0.00,,---,0.03,0.00,VWS V14.01,2013-04-01 02:19:00,
2013-03-31 22:24:00,47.4,41.2,29.70,SW,225,5.0,11.0,79,0.00,,---,0.03,0.00,VWS V14.01,2013-04-01 02:24:00,
2013-03-31 22:29:00,47.3,41.1,29.70,SW,220,4.0,11.0,79,0.00,,---,0.03,0.00,VWS V14.01,2013-04-01 02:29:00,
2013-03-31 22:30:00,47.3,41.1,29.70,SSW,212,5.0,11.0,79,0.00,,---,0.03,0.00,VWS V14.01,2013-04-01 02:30:00,
2013-03-31 22:34:00,47.2,41.0,29.70,SW,228,9.0,10.0,79,0.00,,---,0.03,0.00,VWS V14.01,2013-04-01 02:34:00,
2013-03-31 22:39:00,47.2,41.0,29.70,SSW,209,5.0,12.0,79,0.00,,---,0.03,0.00,VWS V14.01,2013-04-01 02:39:00,
2013-03-31 22:44:00,47.1,40.9,29.70,SW,223,9.0,12.0,79,0.00,,---,0.03,0.00,VWS V14.01,2013-04-01 02:44:00,
2013-03-31 22:49:00,47.0,40.8,29.71,SSW,213,5.0,12.0,79,0.00,,---,0.03,0.00,VWS V14.01,2013-04-01 02:49:00,
2013-03-31 22:55:00,47.0,40.8,29.70,SW,219,5.0,12.0,79,0.00,,---,0.03,0.00,VWS V14.01,2013-04-01 02:55:00,
2013-03-31 22:59:00,46.9,40.7,29.70,SW,218,5.0,12.0,79,0.00,,---,0.03,0.00,VWS V14.01,2013-04-01 02:59:00,
2013-03-31 23:00:00,46.9,40.7,29.70,SSW,192,5.0,12.0,79,0.00,,---,0.03,0.00,VWS V14.01,2013-04-01 03:00:00,
2013-03-31 23:04:00,46.8,40.6,29.70,SW,215,5.0,9.0,79,0.00,,---,0.03,0.00,VWS V14.01,2013-04-01 03:04:00,
2013-03-31 23:10:00,46.8,41.0,29.70,SW,220,6.0,9.0,80,0.00,,---,0.03,0.00,VWS V14.01,2013-04-01 03:10:00,
2013-03-31 23:15:00,46.8,41.0,29.70,SSW,213,5.0,10.0,80,0.00,,---,0.03,0.00,VWS V14.01,2013-04-01 03:15:00,
2013-03-31 23:20:00,46.8,41.0,29.70,SW,215,9.0,10.0,80,0.00,,---,0.03,0.00,VWS V14.01,2013-04-01 03:20:00,
2013-03-31 23:25:00,46.8,40.6,29.70,SW,214,5.0,10.0,79,0.00,,---,0.03,0.00,VWS V14.01,2013-04-01 03:25:00,
2013-03-31 23:30:00,46.8,41.0,29.70,SW,219,4.0,11.0,80,0.00,,---,0.03,0.00,VWS V14.01,2013-04-01 03:30:00,
2013-03-31 23:35:00,46.9,40.7,29.69,SW,229,5.0,10.0,79,0.00,,---,0.03,0.00,VWS V14.01,2013-04-01 03:35:00,
2013-03-31 23:40:00,47.0,40.8,29.70,WSW,246,9.0,11.0,79,0.00,,---,0.03,0.00,VWS V14.01,2013-04-01 03:40:00,
2013-03-31 23:45:00,47.1,41.3,29.70,West,265,5.0,11.0,80,0.00,,---,0.03,0.00,VWS V14.01,2013-04-01 03:45:00,
2013-03-31 23:50:00,47.0,41.2,29.71,West,273,4.0,11.0,80,0.00,,---,0.03,0.00,VWS V14.01,2013-04-01 03:50:00,
2013-03-31 23:55:00,46.9,41.1,29.71,SW,227,5.0,13.0,80,0.00,,---,0.03,0.00,VWS V14.01,2013-04-01 03:55:00,